HS2LXA-WX Weather Reports


time (UTC)temp
F
wind
direction
speed
knots
gust
knots
rain 1hr
in
rain 24hr
in
rain mn
in
humidity
%
barometer
mb
20260508123940 85 90 0.0 0.0 0.00 0.00 0.00 74 1013.1
20260508122939 84 0 0.0 0.0 0.00 0.00 0.00 77 1013.1
20260508121939 84 90 0.0 0.0 0.00 0.00 0.00 77 1013.2
20260508120940 85 0 0.0 0.0 0.00 0.00 0.00 75 1013.1
20260508115939 84 0 0.0 0.0 0.00 0.00 0.00 77 1013.2
20260508114445 85 0 0.0 0.0 0.00 0.00 0.00 73 1013.2
20260508113445 86 0 0.0 0.0 0.00 0.00 0.00 74 1013.1
20260508112445 86 0 0.0 0.0 0.00 0.00 0.00 74 1013.2
20260508110529 86 270 0.0 0.0 0.00 0.00 0.00 74 1013.2
20260508105529 86 0 0.0 0.0 0.00 0.00 0.00 74 1013.1
20260508104530 86 0 0.0 0.0 0.00 0.00 0.00 73 1013.1
20260508102636 86 0 0.0 0.0 0.00 0.00 0.00 75 1013.1
20260508101636 86 0 0.0 0.0 0.00 0.00 0.00 73 1013.1
20260508100636 86 22 0.0 0.0 0.00 0.00 0.00 72 1013.1
20260508095635 86 0 0.0 0.0 0.00 0.00 0.00 71 1013.1
20260508094635 86 0 0.0 0.0 0.00 0.00 0.00 70 1013.2
20260508093635 87 90 0.0 0.0 0.00 0.00 0.00 69 1013.1
20260508092635 87 0 0.0 0.0 0.00 0.00 0.00 69 1013.2
20260508091632 87 202 0.0 0.0 0.00 0.00 0.00 68 1013.2
20260508090632 87 0 0.0 0.0 0.00 0.00 0.00 67 1013.1
20260508085631 87 202 0.0 0.0 0.00 0.00 0.00 67 1013.1
20260508084631 87 0 0.0 0.0 0.00 0.00 0.00 66 1013.1
20260508083631 86 90 0.0 0.0 0.00 0.00 0.00 67 1013.2
20260508082630 85 90 0.9 1.7 0.00 0.00 0.00 70 1013.1
20260508081631 84 270 1.7 4.3 0.00 0.00 0.00 70 1013.1
20260508080630 84 0 12.2 28.7 0.00 0.00 0.00 68 1013.1
20260508075631 85 0 7.0 15.6 0.00 0.00 0.00 67 1013.1
20260508074631 86 0 33.0 73.9 0.00 0.00 0.00 66 1013.2
20260508073631 88 0 13.0 30.4 0.00 0.00 0.00 66 1013.1
20260508072627 91 0 26.1 59.1 0.00 0.00 0.00 75 1013.1
20260508071102 92 225 0.0 0.0 0.00 0.00 0.00 75 1013.1
20260508065416 92 112 0.0 0.0 0.00 0.00 0.00 76 1013.1
20260508064417 93 112 0.0 0.0 0.00 0.00 0.00 75 1013.1
20260508063416 92 225 0.0 0.0 0.00 0.00 0.00 75 1013.1
20260508062415 92 112 0.0 0.0 0.00 0.00 0.00 77 1013.2
20260508061416 92 202 0.0 0.0 0.00 0.00 0.00 77 1013.1
20260508060416 92 0 0.0 0.0 0.00 0.00 0.00 79 1013.1
20260508055415 93 112 0.0 0.0 0.00 0.00 0.00 75 1013.1
20260508054415 92 112 1.7 4.3 0.00 0.00 0.00 76 1013.1
20260508053415 92 315 0.0 0.0 0.00 0.00 0.00 76 1013.1
20260508052415 92 112 0.0 0.0 0.00 0.00 0.00 76 1013.1
20260508051412 92 90 0.0 0.0 0.00 0.00 0.00 74 1013.1
20260508050412 92 67 0.0 0.0 0.00 0.00 0.00 75 1013.1
20260508044449 91 112 0.0 0.0 0.00 0.00 0.00 78 1013.2
20260508043449 91 112 0.0 0.0 0.00 0.00 0.00 80 1013.1
20260508042449 91 315 0.0 0.0 0.00 0.00 0.00 78 1013.1
20260508041448 91 67 0.0 0.0 0.00 0.00 0.00 77 1013.2
20260508040448 91 67 0.0 0.0 0.00 0.00 0.00 78 1013.1
20260508035447 91 67 0.0 0.0 0.00 0.00 0.00 78 1013.1
20260508034449 91 315 0.0 0.0 0.00 0.00 0.00 78 1013.2
20260508033447 91 315 0.0 0.0 0.00 0.00 0.00 80 1013.1
20260508031605 91 67 0.0 0.0 0.00 0.00 0.00 79 1013.1
20260508030605 90 67 0.0 0.0 0.00 0.00 0.00 78 1013.1
20260508025534 90 67 0.0 0.0 0.00 0.00 0.00 80 1013.2
20260508024534 90 315 0.0 0.0 0.00 0.00 0.00 78 1013.1
20260508023534 89 67 0.0 0.0 0.00 0.00 0.00 79 1013.2
20260508022533 88 0 0.0 0.0 0.00 0.00 0.00 82 1013.2
20260508021534 88 22 0.0 0.0 0.00 0.00 0.00 83 1013.1
20260508015140 88 90 0.0 0.0 0.00 0.00 0.00 85 1013.2
20260508014141 87 0 0.0 0.0 0.00 0.00 0.00 86 1013.2
20260508013141 88 90 0.0 0.0 0.00 0.00 0.00 85 1013.1
20260508012140 88 0 0.0 0.0 0.00 0.00 0.00 84 1013.1
20260508011140 87 270 0.0 0.0 0.00 0.00 0.00 86 1013.2
20260508010140 86 225 0.0 0.0 0.00 0.00 0.00 86 1013.1
20260508005139 86 0 0.0 0.0 0.00 0.00 0.00 86 1013.1
20260508004134 86 0 0.0 0.0 0.00 0.00 0.00 87 1013.1
20260508003135 87 225 0.0 0.0 0.00 0.00 0.00 85 1013.2
20260508002133 86 225 0.0 0.0 0.00 0.00 0.00 85 1013.1
20260508001132 86 225 0.0 0.0 0.00 0.00 0.00 86 1013.1
20260508000038 86 0 0.0 0.0 0.00 0.00 0.00 85 1013.1
20260507234115 87 0 0.0 0.0 0.00 0.00 0.00 83 1013.1
20260507233115 86 0 0.0 0.0 0.00 0.00 0.00 85 1013.1
20260507232114 86 0 0.0 0.0 0.00 0.00 0.00 84 1013.1
20260507231114 85 225 0.0 0.0 0.00 0.00 0.00 86 1013.1
20260507230114 86 270 0.0 0.0 0.00 0.00 0.00 84 1013.2
20260507225109 86 225 0.0 0.0 0.00 0.00 0.00 82 1013.2
20260507222756 87 225 0.0 0.0 0.00 0.00 0.00 82 1013.2
20260507221757 86 112 0.0 0.0 0.00 0.00 0.00 83 1013.1
20260507215830 87 0 0.0 0.0 0.00 0.00 0.00 82 1013.2
20260507214830 87 0 0.0 0.0 0.00 0.00 0.00 81 1013.1
20260507213829 86 270 0.0 0.0 0.00 0.00 0.00 81 1013.2
20260507212829 87 270 0.0 0.0 0.00 0.00 0.00 82 1013.2
20260507211826 87 112 0.0 0.0 0.00 0.00 0.00 81 1013.2
20260507210826 87 0 0.0 0.0 0.00 0.00 0.00 81 1013.1
20260507205827 87 0 0.0 0.0 0.00 0.00 0.00 81 1013.2
20260507204825 87 0 0.0 0.0 0.00 0.00 0.00 80 1013.1
20260507202947 87 0 0.0 0.0 0.00 0.00 0.00 80 1013.2
20260507201947 86 0 0.0 0.0 0.00 0.00 0.00 82 1013.2
20260507200947 87 0 0.0 0.0 0.00 0.00 0.00 81 1013.2
20260507195947 88 90 0.0 0.0 0.00 0.00 0.00 79 1013.1
20260507194947 88 90 0.0 0.0 0.00 0.00 0.00 79 1013.1
20260507193946 88 90 0.0 0.0 0.00 0.00 0.00 79 1013.2
20260507192946 88 22 0.0 0.0 0.00 0.00 0.00 79 1013.1
20260507191947 87 0 0.0 0.0 0.00 0.00 0.00 79 1013.1
20260507190946 88 270 0.0 0.0 0.00 0.00 0.00 79 1013.2
20260507185946 88 0 0.0 0.0 0.00 0.00 0.00 79 1013.1
20260507183813 88 67 0.0 0.0 0.00 0.00 0.00 80 1013.1
20260507181631 86 225 0.0 0.0 0.00 0.00 0.00 86 1013.2
20260507180632 86 225 0.0 0.0 0.00 0.00 0.00 86 1013.2
20260507175631 86 225 0.0 0.0 0.00 0.00 0.00 88 1013.1
20260507174630 86 225 0.0 0.0 0.00 0.00 0.00 86 1013.1
20260507173151 86 225 0.0 0.0 0.00 0.00 0.00 86 1013.1
20260507172151 86 225 0.0 0.0 0.00 0.00 0.00 88 1013.1
20260507171150 85 225 0.0 0.0 0.00 0.00 0.00 90 1013.2
20260507170151 86 0 0.0 0.0 0.00 0.00 0.00 87 1013.1
20260507164946 87 270 0.0 0.0 0.00 0.00 0.31 85 1013.1
20260507163946 87 202 0.0 0.0 0.00 0.00 0.31 85 1013.1
20260507162944 87 202 0.0 0.0 0.00 0.00 0.31 84 1013.2
20260507161943 87 67 0.0 0.0 0.00 0.00 0.31 84 1013.1
20260507160858 86 67 0.0 0.0 0.00 0.00 0.31 84 1013.2
20260507151110 87 0 0.0 0.0 0.00 0.00 0.31 83 1013.1
20260507150109 86 0 0.0 0.0 0.00 0.00 0.31 85 1013.1
20260507144355 87 67 0.0 0.0 0.00 0.00 0.31 80 1013.1
20260507143350 87 67 0.0 0.0 0.00 0.00 0.31 78 1013.1
20260507142350 86 202 0.0 0.0 0.00 0.00 0.31 82 1013.2
20260507141031 86 112 0.0 0.0 0.00 0.00 0.31 82 1013.2
20260507140033 86 0 0.0 0.0 0.00 0.00 0.31 80 1013.1
20260507134223 87 315 0.0 0.0 0.00 0.00 0.31 80 1013.1
20260507133222 87 112 0.0 0.0 0.00 0.00 0.31 81 1013.2
20260507132221 87 0 0.0 0.0 0.00 0.00 0.31 79 1013.2
20260507131221 87 67 0.0 0.0 0.00 0.00 0.31 79 1013.2
20260507125952 88 67 0.0 0.0 0.00 0.00 0.31 79 1013.1